| time (UTC) | temp F | wind direction | speed MPH | gust MPH | rain 1hr in | rain 24hr in | rain mn in | humidity % | barometer mb |
| 20260504081509 | 55 | 249 | 0.0 | 0.0 | 0.00 | 0.00 | 0.00 | 84 | 1014.1 |
| 20260504050010 | 56 | 250 | 0.0 | 0.0 | 0.00 | 0.00 | 0.00 | 80 | 1013.9 |
| 20260504043028 | 56 | 249 | 0.0 | 0.0 | 0.00 | 0.00 | 0.00 | 79 | 1013.3 |
| 20260504041539 | 56 | 250 | 0.0 | 0.0 | 0.00 | 0.00 | 0.00 | 79 | 1013.2 |
| 20260504040027 | 56 | 249 | 0.0 | 0.0 | 0.00 | 0.00 | 0.00 | 78 | 1012.8 |
| 20260504033011 | 57 | 250 | 0.0 | 0.0 | 0.00 | 0.00 | 0.00 | 79 | 1012.7 |
| 20260504031509 | 57 | 250 | 0.0 | 0.0 | 0.00 | 0.00 | 0.00 | 79 | 1012.7 |
| 20260504030008 | 57 | 249 | 0.0 | 0.0 | 0.00 | 0.00 | 0.00 | 79 | 1012.6 |
| 20260504023014 | 57 | 249 | 0.0 | 0.0 | 0.00 | 0.00 | 0.00 | 79 | 1012.6 |
| 20260504021514 | 58 | 249 | 1.0 | 0.0 | 0.00 | 0.00 | 0.00 | 79 | 1012.2 |
| 20260504020018 | 58 | 252 | 1.0 | 0.0 | 0.00 | 0.00 | 0.00 | 76 | 1012.3 |
| 20260504013037 | 59 | 244 | 1.0 | 0.0 | 0.00 | 0.00 | 0.00 | 74 | 1011.9 |
| 20260504011528 | 59 | 204 | 0.0 | 0.0 | 0.00 | 0.00 | 0.00 | 69 | 1012.0 |
| 20260504010028 | 61 | 233 | 0.0 | 0.0 | 0.00 | 0.00 | 0.00 | 65 | 1012.0 |
| 20260504003029 | 62 | 223 | 0.0 | 0.0 | 0.00 | 0.00 | 0.00 | 64 | 1011.5 |
| 20260504001535 | 62 | 223 | 0.0 | 0.0 | 0.00 | 0.00 | 0.00 | 64 | 1011.6 |
| 20260504000028 | 63 | 219 | 0.0 | 0.0 | 0.00 | 0.00 | 0.00 | 64 | 1011.4 |
| 20260503233045 | 65 | 209 | 0.0 | 0.0 | 0.00 | 0.00 | 0.00 | 60 | 1011.2 |
| 20260503231542 | 63 | 207 | 0.0 | 0.0 | 0.00 | 0.00 | 0.00 | 63 | 1011.5 |
| 20260503230044 | 63 | 203 | 0.0 | 0.0 | 0.00 | 0.00 | 0.00 | 63 | 1011.8 |
| 20260503223011 | 63 | 200 | 0.0 | 0.0 | 0.00 | 0.00 | 0.00 | 64 | 1012.0 |
| 20260503221511 | 62 | 198 | 0.0 | 0.0 | 0.00 | 0.00 | 0.00 | 63 | 1012.2 |
| 20260503220011 | 63 | 196 | 0.0 | 0.0 | 0.00 | 0.00 | 0.00 | 63 | 1012.3 |
| 20260503213010 | 62 | 223 | 0.0 | 0.0 | 0.00 | 0.00 | 0.00 | 65 | 1012.5 |
| 20260503211509 | 61 | 227 | 1.0 | 0.0 | 0.00 | 0.00 | 0.00 | 68 | 1012.6 |
| 20260503210008 | 60 | 227 | 1.0 | 0.0 | 0.00 | 0.00 | 0.00 | 68 | 1012.7 |
| 20260503203017 | 60 | 235 | 1.0 | 0.0 | 0.00 | 0.00 | 0.00 | 71 | 1012.7 |
| 20260503201514 | 60 | 230 | 1.0 | 0.0 | 0.00 | 0.00 | 0.00 | 73 | 1012.7 |
| 20260503200013 | 60 | 217 | 1.0 | 0.0 | 0.00 | 0.00 | 0.00 | 73 | 1012.8 |
| 20260503193021 | 60 | 286 | 0.0 | 0.0 | 0.00 | 0.00 | 0.00 | 73 | 1012.8 |
| 20260503191529 | 61 | 279 | 0.0 | 0.0 | 0.00 | 0.00 | 0.00 | 71 | 1012.8 |
| 20260503190021 | 61 | 301 | 0.0 | 0.0 | 0.00 | 0.00 | 0.00 | 71 | 1012.9 |
| 20260503183109 | 60 | 301 | 0.0 | 0.0 | 0.00 | 0.00 | 0.00 | 72 | 1013.1 |